Weather Roundup
Issued by NWS Chicago, IL

Home | Current Version | Previous Version | Graphics & Text | Print | Product List | Glossary On
Versions: 1 2 3 4 5 6 7 8 9 10 11 12 13 14 15 16 17 18 19 20 21 22 23 24 25 26 27 28 29 30 31 32 33 34 35 36 37 38 39 40 41 42 43 44 45 46 47 48 49 50
000
NZUS59 KLOT 231408
HRRLOT

CHICAGO AREA WEATHER ROUNDUP
NATIONAL WEATHER SERVICE CHICAGO/ROMEOVILLE IL
800 AM CST FRI FEB 23 2018

NOTE: "FAIR" INDICATES FEW OR NO CLOUDS BELOW 12,000 FEET WITH NO
SIGNIFICANT WEATHER AND/OR OBSTRUCTIONS TO VISIBILITY.

* THESE STATIONS ARE NOT UNDER NWS QUALITY CONTROL. THEY ALSO MAY NOT
  REPORT WEATHER SUCH AS PRECIPITATION OR FOG.

ILZ005-006-012>014-019>023-231500-
NORTHEAST ILLINOIS

CITY           SKY/WX    TMP DP  RH WIND       PRES   REMARKS
OHARE          CLOUDY    42  40  92 SW10      30.07F FOG
MIDWAY         CLOUDY    42  41  96 SW8       30.09S
AURORA         CLOUDY    41  41 100 SW9       30.09S FOG
LANSING*       CLOUDY    41  41 100 S9        30.11S
JOLIET*        CLOUDY    43  43 100 SW5       30.11S FOG
WAUKEGAN       CLOUDY    41  40  96 S9        30.05F FOG
DUPAGE AIRPORT FOG       41  41 100 S8        30.08S VSB 3/4
WHEELING       CLOUDY    43  42  97 S9        30.08F
KANKAKEE*      CLOUDY    42  42  98 SW8       30.13S FOG
MORRIS*        CLOUDY    42  42  98 SW9       30.11R FOG
LEWIS AIRPORT* CLOUDY    41  41 100 SW7       30.10S FOG
NORTHERLY ISL    N/A     41  39  93 S8          N/A
$$

WIZ051-052-058>065-066-070>072-231500-
SOUTHEAST WISCONSIN

CITY           SKY/WX    TMP DP  RH WIND       PRES   REMARKS
MILWAUKEE      CLOUDY    37  36  96 S8        30.05F FOG
KENOSHA*       FOG       38  37  97 S6        30.06F VSB 1
RACINE*        CLOUDY    37  37 100 S6        30.07F FOG
BURLINGTON     CLOUDY    38  37  97 SW8       30.06R FOG
WAUKESHA       CLOUDY    34  34 100 S6        30.06F FOG     WCI  29
WEST BEND      CLOUDY    34  34 100 SW5       30.04S FOG     WCI  30
$$

INZ001>003-010>013-019-020-231500-
NORTHWEST INDIANA

CITY           SKY/WX    TMP DP  RH WIND       PRES   REMARKS
GARY*          CLOUDY    43  43 100 S7        30.11S
MICHIGAN CITY* NOT AVBL
RENSSELAER*    NOT AVBL
VALPARAISO     CLOUDY    41  40  96 S6        30.12S FOG
$$

LMZ740>746-231500-
SOUTHERN LAKE MICHIGAN

STATION/POSITION TIME  SKY/WX   TEMP WIND        PRES    VSBY
                                AIR  DIR/SP/G
                 (UTC)          (F)  (DEG/KT/KT) (MB)    (MI)
HARRISON CRIB    1340            40  170/ 11/ 12   N/A
BURNHAM HARBOR   1400            42  180/  7/ 12   N/A
CALUMET HARBOR   1348            41  180/  6/  9 1018.5F
BURNS HARBOR     1340            41  180/ 11/ 18 1019.6F
MICHIGAN CITY    1340            41  140/ 16/ 20   N/A
$$

ABBREVIATIONS USED IN REMARKS
   TC - TEMPERATURE IN CELSIUS
  WCI - WIND CHILL INDEX
   HX - HEAT INDEX
  VSB - VISIBILITY
$$




USA.gov is the U.S. government's official web portal to all federal, state and local government web resources and services.